Location: Bégole
(43.1574°N, 0.3291°E)
Time: 02:27:02
(UTC+00:00)

deb Delta 89 - Pass Details

Date: 22 February 2024
Orbit: 714 x 2021 km, 97.5° (Epoch: 13 April)

Event Time Altitude Azimuth Distance (km) Brightness Sun altitude
Rises 05:30:25 0° 6° (N) 5,393 ? -14.7°
Reaches altitude 10° 05:35:18 10° 348° (NNW) 4,467 ? -13.8°
Maximum altitude 05:41:10 16° 316° (NW) 3,975 ? -12.7°
Enters shadow 05:45:53 12° 289° (WNW) 4,250 ? -11.9°
